EN

Hourly Weather Pchegatlukay

Today, 28 October, Wednesday

Time Temperature Precipitation Wind Pressure Humidity
00:00 +15°C° 0 mm 2 mps 760 mmHg 74%
01:00 +15°C° 0 mm 2 mps 760 mmHg 73%
02:00 +15°C° 0 mm 2 mps 760 mmHg 72%
03:00 +14°C° 0 mm 2 mps 760 mmHg 71%
04:00 +14°C° 0 mm 2 mps 760 mmHg 72%
05:00 +14°C° 0 mm 2 mps 760 mmHg 73%
06:00 +13°C° 0 mm 1 mps 760 mmHg 73%
07:00 +15°C° 0 mm 2 mps 760 mmHg 68%
08:00 +16°C° 0 mm 2 mps 760 mmHg 63%
09:00 +17°C° 0 mm 2 mps 760 mmHg 58%
10:00 +19°C° 0 mm 2 mps 760 mmHg 51%
11:00 +21°C° 0 mm 2 mps 760 mmHg 44%
12:00 +24°C° 0 mm 2 mps 759 mmHg 37%
13:00 +25°C° 0 mm 2 mps 759 mmHg 36%
14:00 +25°C° 0 mm 3 mps 759 mmHg 35%
15:00 +26°C° 0 mm 3 mps 758 mmHg 35%
16:00 +24°C° 0 mm 3 mps 758 mmHg 41%
17:00 +21°C° 0 mm 3 mps 758 mmHg 48%
18:00 +19°C° 0 mm 3 mps 758 mmHg 54%
19:00 +19°C° 0 mm 3 mps 758 mmHg 58%
20:00 +18°C° 0 mm 3 mps 758 mmHg 62%
21:00 +17°C° 0 mm 2 mps 758 mmHg 66%
22:00 +17°C° 0 mm 2 mps 758 mmHg 67%
23:00 +17°C° 0 mm 2 mps 758 mmHg 68%

Tomorrow, 29 October, Thursday

Time Temperature Precipitation Wind Pressure Humidity
00:00 +16°C° 0 mm 1 mps 758 mmHg 68%
01:00 +16°C° 0 mm 1 mps 758 mmHg 68%
02:00 +16°C° 0 mm 2 mps 758 mmHg 68%
03:00 +16°C° 0 mm 2 mps 757 mmHg 68%
04:00 +16°C° 0 mm 1 mps 757 mmHg 67%
05:00 +16°C° 0 mm 1 mps 757 mmHg 67%
06:00 +16°C° 0 mm 1 mps 757 mmHg 66%
07:00 +18°C° 0 mm 1 mps 757 mmHg 62%
08:00 +19°C° 0 mm 1 mps 757 mmHg 59%
09:00 +20°C° 0 mm 1 mps 758 mmHg 55%
10:00 +22°C° 0 mm 1 mps 757 mmHg 48%
11:00 +24°C° 0 mm 1 mps 757 mmHg 42%
12:00 +27°C° 0 mm 1 mps 757 mmHg 36%
13:00 +27°C° 0 mm 1 mps 757 mmHg 35%
14:00 +27°C° 0 mm 2 mps 757 mmHg 34%
15:00 +28°C° 0 mm 2 mps 756 mmHg 33%
16:00 +26°C° 0 mm 1 mps 756 mmHg 39%
17:00 +24°C° 0 mm 1 mps 756 mmHg 45%
18:00 +22°C° 0 mm 1 mps 757 mmHg 50%
19:00 +22°C° 0 mm 1 mps 757 mmHg 54%
20:00 +21°C° 0 mm 1 mps 757 mmHg 58%
21:00 +21°C° 0 mm 1 mps 757 mmHg 62%
22:00 +21°C° 0 mm 1 mps 757 mmHg 68%
23:00 +20°C° 0 mm 1 mps 757 mmHg 73%

Day after tomorrow, 30 October, Friday

Time Temperature Precipitation Wind Pressure Humidity
00:00 +19°C° 0 mm 2 mps 757 mmHg 78%
01:00 +19°C° 0.2 mm 2 mps 757 mmHg 79%
02:00 +19°C° 0.2 mm 2 mps 757 mmHg 80%
03:00 +19°C° 0.2 mm 3 mps 757 mmHg 81%
04:00 +18°C° 0.3 mm 3 mps 757 mmHg 82%
05:00 +18°C° 0.3 mm 3 mps 758 mmHg 84%
06:00 +17°C° 0.3 mm 3 mps 758 mmHg 86%
07:00 +18°C° 0 mm 4 mps 758 mmHg 81%
08:00 +19°C° 0 mm 5 mps 758 mmHg 77%
09:00 +19°C° 0 mm 5 mps 758 mmHg 72%
10:00 +20°C° 0 mm 6 mps 758 mmHg 66%
11:00 +22°C° 0 mm 6 mps 758 mmHg 59%
12:00 +23°C° 0 mm 6 mps 758 mmHg 52%
13:00 +23°C° 0 mm 6 mps 758 mmHg 53%
14:00 +23°C° 0 mm 6 mps 758 mmHg 54%
15:00 +22°C° 0 mm 7 mps 757 mmHg 54%
16:00 +21°C° 0 mm 5 mps 758 mmHg 60%
17:00 +20°C° 0 mm 4 mps 758 mmHg 66%
18:00 +19°C° 0 mm 3 mps 758 mmHg 72%
19:00 +18°C° 0 mm 3 mps 758 mmHg 75%
20:00 +17°C° 0 mm 2 mps 758 mmHg 79%
21:00 +17°C° 0 mm 2 mps 758 mmHg 83%
22:00 +16°C° 0 mm 1 mps 758 mmHg 84%
23:00 +16°C° 0 mm 1 mps 758 mmHg 85%

31 October, Saturday

Time Temperature Precipitation Wind Pressure Humidity
00:00 +14°C° 0 mm 0 mps 758 mmHg 85%
01:00 +15°C° 0 mm 1 mps 758 mmHg 86%
02:00 +15°C° 0 mm 1 mps 758 mmHg 87%
03:00 +15°C° 0 mm 1 mps 758 mmHg 88%
04:00 +15°C° 0.2 mm 1 mps 758 mmHg 87%
05:00 +15°C° 0.2 mm 1 mps 758 mmHg 86%
06:00 +15°C° 0.2 mm 2 mps 758 mmHg 86%
07:00 +15°C° 1.2 mm 2 mps 758 mmHg 86%
08:00 +16°C° 1.2 mm 3 mps 758 mmHg 87%
09:00 +16°C° 1.2 mm 3 mps 757 mmHg 87%
10:00 +15°C° 0.6 mm 4 mps 758 mmHg 83%
11:00 +17°C° 0.6 mm 4 mps 758 mmHg 78%
12:00 +17°C° 0.6 mm 5 mps 758 mmHg 74%
13:00 +17°C° 0.2 mm 5 mps 758 mmHg 70%
14:00 +17°C° 0.2 mm 6 mps 758 mmHg 65%
15:00 +18°C° 0.2 mm 7 mps 758 mmHg 61%
16:00 +17°C° 0 mm 6 mps 758 mmHg 65%
17:00 +16°C° 0 mm 5 mps 759 mmHg 69%
18:00 +15°C° 0 mm 5 mps 759 mmHg 73%
19:00 +14°C° 0 mm 4 mps 759 mmHg 73%
20:00 +14°C° 0 mm 4 mps 759 mmHg 73%
21:00 +14°C° 0 mm 4 mps 760 mmHg 73%
22:00 +13°C° 0 mm 4 mps 760 mmHg 74%
23:00 +13°C° 0 mm 3 mps 760 mmHg 74%

1 November, Sunday

Time Temperature Precipitation Wind Pressure Humidity
00:00 +13°C° 0 mm 3 mps 760 mmHg 75%
01:00 +14°C° 0 mm 2 mps 760 mmHg 75%
02:00 +14°C° 0 mm 2 mps 761 mmHg 74%
03:00 +13°C° 0 mm 1 mps 761 mmHg 74%
04:00 +14°C° 0 mm 1 mps 761 mmHg 74%
05:00 +14°C° 0 mm 1 mps 761 mmHg 75%
06:00 +14°C° 0 mm 1 mps 761 mmHg 76%
07:00 +14°C° 0 mm 1 mps 761 mmHg 76%
08:00 +14°C° 0 mm 1 mps 761 mmHg 76%
09:00 +14°C° 0 mm 1 mps 761 mmHg 76%
10:00 +15°C° 0.2 mm 1 mps 761 mmHg 75%
11:00 +15°C° 0.2 mm 2 mps 761 mmHg 74%
12:00 +16°C° 0.2 mm 2 mps 761 mmHg 73%
13:00 +16°C° 0.2 mm 2 mps 760 mmHg 74%
14:00 +16°C° 0.2 mm 2 mps 760 mmHg 76%
15:00 +17°C° 0.2 mm 2 mps 760 mmHg 78%
16:00 +16°C° 0.2 mm 2 mps 760 mmHg 82%
17:00 +16°C° 0.2 mm 2 mps 760 mmHg 86%
18:00 +15°C° 0.2 mm 2 mps 760 mmHg 89%
19:00 +15°C° 0 mm 2 mps 760 mmHg 90%
20:00 +15°C° 0 mm 1 mps 760 mmHg 90%
21:00 +14°C° 0 mm 1 mps 761 mmHg 90%
22:00 +14°C° 0 mm 1 mps 761 mmHg 90%
23:00 +14°C° 0 mm 1 mps 761 mmHg 90%

2 November, Monday

Time Temperature Precipitation Wind Pressure Humidity
00:00 +14°C° 0 mm 1 mps 761 mmHg 90%
01:00 +14°C° 0 mm 1 mps 760 mmHg 90%
02:00 +14°C° 0 mm 1 mps 760 mmHg 90%
03:00 +14°C° 0 mm 1 mps 760 mmHg 90%
04:00 +14°C° 0 mm 1 mps 760 mmHg 90%
05:00 +14°C° 0 mm 1 mps 761 mmHg 89%
06:00 +13°C° 0 mm 0 mps 761 mmHg 89%
07:00 +13°C° 0 mm 0 mps 761 mmHg 87%
08:00 +14°C° 0 mm 0 mps 761 mmHg 84%
09:00 +14°C° 0 mm 0 mps 761 mmHg 81%
10:00 +18°C° 0 mm 1 mps 761 mmHg 75%
11:00 +19°C° 0 mm 1 mps 761 mmHg 68%
12:00 +21°C° 0 mm 1 mps 760 mmHg 61%
13:00 +22°C° 0 mm 1 mps 760 mmHg 58%
14:00 +22°C° 0 mm 1 mps 760 mmHg 56%
15:00 +23°C° 0 mm 1 mps 760 mmHg 53%
16:00 +22°C° 0 mm 1 mps 760 mmHg 58%
17:00 +20°C° 0 mm 1 mps 760 mmHg 64%
18:00 +19°C° 0 mm 1 mps 760 mmHg 70%
19:00 +18°C° 0 mm 1 mps 760 mmHg 73%
20:00 +17°C° 0 mm 2 mps 760 mmHg 76%
21:00 +16°C° 0 mm 2 mps 760 mmHg 79%
22:00 +16°C° 0 mm 2 mps 760 mmHg 80%
23:00 +16°C° 0 mm 2 mps 760 mmHg 81%
Show more

We Need Your Consent

Meteoprog and our Service Providers may store and access personal data such as cookies, device identifiers or other similar technologies on your device and process such data to personalise content and ads, as well as provide social media features and to analyse the traffic.

  • Store and/or access information on your device

    Cookies, device identifiers or other information can be stored or accessed on your device for the purposes indicated above.

  • Personalised ads and content, ad and content measurement, audience insights, and products development

    Ads and content can be personalised based on a profile. More data can be added to better personalise ads and content. Ad and content performance can be measured. Insights about the audience who saw the ads and content can be derived. Such data can be used to develop or improve user’s experience, systems and software.

By clicking ‘I Agree’ you will allow the use of indicated cookies, device identifiers, web beacons or other similar technologies. Your settings can be changed in the browser on your device.

For certain purposes, legitimate interests may be relied on, rather than consent. You can read more about this in our Privacy and Cookie Policy.